This is the latest recevied weather packets stored in our database for station/object K5FEP. If no packets are shown the sender has not sent any weather packets the latest 10 day(s).
| Time | Temp. | Humidity | Pressure | Rain* | Wind** | Luminosity | Snow |
|---|---|---|---|---|---|---|---|
| 1777650841 | 16.67° C | 39% | 1015.3 hPa | 0 mm | - | 629 W/m² | - |
| 1777650539 | 16.11° C | 40% | 1015.3 hPa | 0 mm | - | 811 W/m² | - |
| 1777650236 | 16.11° C | 41% | 1015.2 hPa | 0 mm | - | 916 W/m² | - |
| 1777649933 | 16.11° C | 41% | 1015.4 hPa | 0 mm | - | 902 W/m² | - |
| 1777649630 | 16.11° C | 41% | 1015.4 hPa | 0 mm | - | 892 W/m² | - |
| 1777649326 | 16.11° C | 40% | 1015.4 hPa | 0 mm | - | 882 W/m² | - |
| 1777649024 | 16.11° C | 39% | 1015.5 hPa | 0 mm | - | 873 W/m² | - |
| 1777648721 | 15.56° C | 42% | 1015.8 hPa | 0 mm | - | 861 W/m² | - |
| 1777648417 | 15.56° C | 42% | 1015.5 hPa | 0 mm | - | 851 W/m² | - |
| 1777648113 | 15.56° C | 46% | 1015.5 hPa | 0 mm | - | 838 W/m² | - |
| 1777647810 | 15.56° C | 40% | 1015.6 hPa | 0 mm | - | 826 W/m² | - |
| 1777647506 | 15.56° C | 44% | 1015.7 hPa | 0 mm | - | 812 W/m² | - |
| 1777647203 | 15° C | 45% | 1015.6 hPa | 0 mm | - | 791 W/m² | - |
| 1777646900 | 15° C | 47% | 1015.6 hPa | 0 mm | - | 647 W/m² | - |
| 1777646596 | 14.44° C | 46% | 1015.8 hPa | 0 mm | - | 703 W/m² | - |
| 1777646292 | 15° C | 48% | 1015.5 hPa | 0 mm | - | 735 W/m² | - |
| 1777645989 | 14.44° C | 48% | 1015.6 hPa | 0 mm | - | 763 W/m² | - |
| 1777645686 | 14.44° C | 46% | 1015.7 hPa | 0 mm | - | 554 W/m² | - |
| 1777645382 | 13.89° C | 52% | 1015.6 hPa | 0 mm | - | 617 W/m² | - |
| 1777645078 | 13.89° C | 56% | 1015.3 hPa | 0 mm | - | 363 W/m² | - |
| 1777644775 | 13.89° C | 56% | 1015.4 hPa | 0 mm | - | 363 W/m² | - |
| 1777644472 | 13.89° C | 55% | 1015.8 hPa | 0 mm | - | 351 W/m² | - |
| 1777644169 | 13.89° C | 54% | 1015.7 hPa | 0 mm | - | 399 W/m² | - |
| 1777643865 | 13.89° C | 56% | 1015.9 hPa | 0 mm | - | 436 W/m² | - |
| 1777643563 | 13.33° C | 57% | 1015.8 hPa | 0 mm | - | 422 W/m² | - |
* Rain latest hour (hover to see other rain measurements)
** Current wind speed in m/s (hover to see current wind gust speed)